Year,Month,Day,Hour,Minute,Value (Times are PST for windspeed in km/hr)
2015,11,17,00,00,28.50
2015,11,17,00,01,28.20
2015,11,17,00,02,28.20
2015,11,17,00,03,29.30
2015,11,17,00,04,26.10
2015,11,17,00,05,27.40
2015,11,17,00,06,28.10
2015,11,17,00,07,28.70
2015,11,17,00,08,27.60
2015,11,17,00,09,27.90
2015,11,17,00,10,28.10
2015,11,17,00,11,27.40
2015,11,17,00,12,26.10
2015,11,17,00,13,25.40
2015,11,17,00,14,25.10
2015,11,17,00,15,24.40
2015,11,17,00,16,24.50
2015,11,17,00,17,25.50
2015,11,17,00,18,24.10
2015,11,17,00,19,23.00
2015,11,17,00,20,23.80
2015,11,17,00,21,22.90
2015,11,17,00,22,23.30
2015,11,17,00,23,22.20
2015,11,17,00,24,24.60
2015,11,17,00,25,26.10
2015,11,17,00,26,24.00
2015,11,17,00,27,24.20
2015,11,17,00,28,26.10
2015,11,17,00,29,27.10
2015,11,17,00,30,24.50
2015,11,17,00,31,24.90
2015,11,17,00,32,26.90
2015,11,17,00,33,23.70
2015,11,17,00,34,23.90
2015,11,17,00,35,24.30
2015,11,17,00,36,24.40
2015,11,17,00,37,24.20
2015,11,17,00,38,23.20
2015,11,17,00,39,26.50
2015,11,17,00,40,26.10
2015,11,17,00,41,27.70
2015,11,17,00,42,27.70
2015,11,17,00,43,21.20
2015,11,17,00,44,20.60
2015,11,17,00,45,22.10
2015,11,17,00,46,21.90
2015,11,17,00,47,23.50
2015,11,17,00,48,23.70
2015,11,17,00,49,24.40
2015,11,17,00,50,26.70
2015,11,17,00,51,27.40
2015,11,17,00,52,26.90
2015,11,17,00,53,26.60
2015,11,17,00,54,23.90
2015,11,17,00,55,24.70
2015,11,17,00,56,24.40
2015,11,17,00,57,25.70
2015,11,17,00,58,26.20
2015,11,17,00,59,26.60
2015,11,17,01,00,28.70
2015,11,17,01,01,28.20
2015,11,17,01,02,27.10
2015,11,17,01,03,26.50
2015,11,17,01,04,25.90
2015,11,17,01,05,24.20
2015,11,17,01,06,23.80
2015,11,17,01,07,22.20
2015,11,17,01,08,19.50
2015,11,17,01,09,16.30
2015,11,17,01,10,19.90
2015,11,17,01,11,22.20
2015,11,17,01,12,22.60
2015,11,17,01,13,22.50
2015,11,17,01,14,19.90
2015,11,17,01,15,14.90
2015,11,17,01,16,16.10
2015,11,17,01,17,16.30
2015,11,17,01,18,16.50
2015,11,17,01,19,16.80
2015,11,17,01,20,18.80
2015,11,17,01,21,18.80
2015,11,17,01,22,19.20
2015,11,17,01,23,15.90
2015,11,17,01,24,18.40
2015,11,17,01,25,18.40
2015,11,17,01,26,16.60
2015,11,17,01,27,16.20
2015,11,17,01,28,17.20
2015,11,17,01,29,17.50
2015,11,17,01,30,17.80
2015,11,17,01,31,19.90
2015,11,17,01,32,20.40
2015,11,17,01,33,18.20
2015,11,17,01,34,17.00
2015,11,17,01,35,15.20
2015,11,17,01,36,15.30
2015,11,17,01,37,13.60
2015,11,17,01,38,16.40
2015,11,17,01,39,17.00
2015,11,17,01,40,17.30
2015,11,17,01,41,16.90
2015,11,17,01,42,17.70
2015,11,17,01,43,17.20
2015,11,17,01,44,17.20
2015,11,17,01,45,16.80
2015,11,17,01,46,16.70
2015,11,17,01,47,17.40
2015,11,17,01,48,17.00
2015,11,17,01,49,15.90
2015,11,17,01,50,15.60
2015,11,17,01,51,16.70
2015,11,17,01,52,16.80
2015,11,17,01,53,17.70
2015,11,17,01,54,18.20
2015,11,17,01,55,19.00
2015,11,17,01,56,19.60
2015,11,17,01,57,18.30
2015,11,17,01,58,17.90
2015,11,17,01,59,17.80
2015,11,17,02,00,17.30
2015,11,17,02,01,19.30
2015,11,17,02,02,19.90
2015,11,17,02,03,22.00
2015,11,17,02,04,22.70
2015,11,17,02,05,23.50
2015,11,17,02,06,22.10
2015,11,17,02,07,21.50
2015,11,17,02,08,21.80
2015,11,17,02,09,21.10
2015,11,17,02,10,22.30
2015,11,17,02,11,23.50
2015,11,17,02,12,24.20
2015,11,17,02,13,24.00
2015,11,17,02,14,23.20
2015,11,17,02,15,24.40
2015,11,17,02,16,23.30
2015,11,17,02,17,21.50
2015,11,17,02,18,20.60
2015,11,17,02,19,21.40
2015,11,17,02,20,24.10
2015,11,17,02,21,23.70
2015,11,17,02,22,24.80
2015,11,17,02,23,25.00
2015,11,17,02,24,25.20
2015,11,17,02,25,28.00
2015,11,17,02,26,24.90
2015,11,17,02,27,24.50
2015,11,17,02,28,26.10
2015,11,17,02,29,25.90
2015,11,17,02,30,24.90
2015,11,17,02,31,34.70
2015,11,17,02,32,32.70
2015,11,17,02,33,33.30
2015,11,17,02,34,32.20
2015,11,17,02,35,33.20
2015,11,17,02,36,36.50
2015,11,17,02,37,36.70
2015,11,17,02,38,34.10
2015,11,17,02,39,35.60
2015,11,17,02,40,34.60
2015,11,17,02,41,35.20
2015,11,17,02,42,34.30
2015,11,17,02,43,37.70
2015,11,17,02,44,35.50
2015,11,17,02,45,37.80
2015,11,17,02,46,40.60
2015,11,17,02,47,40.90
2015,11,17,02,48,40.20
2015,11,17,02,49,39.40
2015,11,17,02,50,36.80
2015,11,17,02,51,35.70
2015,11,17,02,52,39.70
2015,11,17,02,53,37.50
2015,11,17,02,54,35.60
2015,11,17,02,55,35.70
2015,11,17,02,56,33.80
2015,11,17,02,57,33.60
2015,11,17,02,58,32.40
2015,11,17,02,59,31.90
2015,11,17,03,00,29.00
2015,11,17,03,01,28.40
2015,11,17,03,02,29.40
2015,11,17,03,03,29.20
2015,11,17,03,04,27.30
2015,11,17,03,05,27.20
2015,11,17,03,06,33.40
2015,11,17,03,07,31.20
2015,11,17,03,08,28.90
2015,11,17,03,09,29.80
2015,11,17,03,10,33.50
2015,11,17,03,11,35.50
2015,11,17,03,12,34.20
2015,11,17,03,13,31.80
2015,11,17,03,14,30.60
2015,11,17,03,15,33.00
2015,11,17,03,16,30.10
2015,11,17,03,17,30.70
2015,11,17,03,18,34.70
2015,11,17,03,19,33.20
2015,11,17,03,20,34.90
2015,11,17,03,21,33.20
2015,11,17,03,22,33.80
2015,11,17,03,23,30.80
2015,11,17,03,24,35.90
2015,11,17,03,25,35.90
2015,11,17,03,26,30.90
2015,11,17,03,27,32.70
2015,11,17,03,28,35.20
2015,11,17,03,29,39.90
2015,11,17,03,30,38.00
2015,11,17,03,31,41.40
2015,11,17,03,32,41.10
2015,11,17,03,33,38.90
2015,11,17,03,34,41.40
2015,11,17,03,35,39.00
2015,11,17,03,36,38.50
2015,11,17,03,37,37.90
2015,11,17,03,38,37.70
2015,11,17,03,39,40.90
2015,11,17,03,40,40.80
2015,11,17,03,41,38.90
2015,11,17,03,42,38.90
2015,11,17,03,43,39.40
2015,11,17,03,44,38.30
2015,11,17,03,45,35.80
2015,11,17,03,46,36.00
2015,11,17,03,47,35.30
2015,11,17,03,48,34.80
2015,11,17,03,49,34.40
2015,11,17,03,50,39.50
2015,11,17,03,51,39.90
2015,11,17,03,52,40.10
2015,11,17,03,53,38.50
2015,11,17,03,54,38.80
2015,11,17,03,55,42.20
2015,11,17,03,56,43.00
2015,11,17,03,57,43.50
2015,11,17,03,58,43.80
2015,11,17,03,59,41.60
2015,11,17,04,00,39.50
2015,11,17,04,01,39.60
2015,11,17,04,02,38.40
2015,11,17,04,03,37.10
2015,11,17,04,04,37.60
2015,11,17,04,05,35.10
2015,11,17,04,06,28.10
2015,11,17,04,07,33.30
2015,11,17,04,08,36.40
2015,11,17,04,09,37.00
2015,11,17,04,10,36.40
2015,11,17,04,11,36.80
2015,11,17,04,12,29.70
2015,11,17,04,13,29.50
2015,11,17,04,14,26.70
2015,11,17,04,15,28.50
2015,11,17,04,16,32.70
2015,11,17,04,17,28.90
2015,11,17,04,18,25.70
2015,11,17,04,19,25.80
2015,11,17,04,20,29.40
2015,11,17,04,21,26.70
2015,11,17,04,22,28.70
2015,11,17,04,23,27.90
2015,11,17,04,24,27.10
2015,11,17,04,25,22.40
2015,11,17,04,26,25.40
2015,11,17,04,27,24.90
2015,11,17,04,28,27.10
2015,11,17,04,29,28.10
2015,11,17,04,30,27.20
2015,11,17,04,31,23.40
2015,11,17,04,32,27.20
2015,11,17,04,33,32.00
2015,11,17,04,34,29.40
2015,11,17,04,35,35.00
2015,11,17,04,36,33.90
2015,11,17,04,37,32.00
2015,11,17,04,38,38.50
2015,11,17,04,39,37.20
2015,11,17,04,40,32.90
2015,11,17,04,41,33.50
2015,11,17,04,42,33.00
2015,11,17,04,43,32.60
2015,11,17,04,44,34.40
2015,11,17,04,45,30.80
2015,11,17,04,46,30.90
2015,11,17,04,47,33.50
2015,11,17,04,48,31.20
2015,11,17,04,49,32.80
2015,11,17,04,50,35.10
2015,11,17,04,51,35.50
2015,11,17,04,52,35.10
2015,11,17,04,53,32.70
2015,11,17,04,54,33.90
2015,11,17,04,55,34.80
2015,11,17,04,56,32.40
2015,11,17,04,57,30.60
2015,11,17,04,58,31.80
2015,11,17,04,59,32.70
2015,11,17,05,00,32.40
2015,11,17,05,01,31.20
2015,11,17,05,02,31.90
2015,11,17,05,03,32.00
2015,11,17,05,04,31.20
2015,11,17,05,05,29.50
2015,11,17,05,06,30.20
2015,11,17,05,07,27.70
2015,11,17,05,08,28.70
2015,11,17,05,09,23.80
2015,11,17,05,10,20.60
2015,11,17,05,11,26.10
2015,11,17,05,12,21.60
2015,11,17,05,13,26.60
2015,11,17,05,14,25.70
2015,11,17,05,15,29.70
2015,11,17,05,16,29.20
2015,11,17,05,17,29.90
2015,11,17,05,18,29.20
2015,11,17,05,19,27.20
2015,11,17,05,20,27.50
2015,11,17,05,21,26.00
2015,11,17,05,22,29.50
2015,11,17,05,23,26.40
2015,11,17,05,24,27.10
2015,11,17,05,25,26.40
2015,11,17,05,26,23.80
2015,11,17,05,27,26.90
2015,11,17,05,28,28.40
2015,11,17,05,29,27.50
2015,11,17,05,30,29.10
2015,11,17,05,31,22.80
2015,11,17,05,32,28.40
2015,11,17,05,33,30.30
2015,11,17,05,34,28.80
2015,11,17,05,35,30.10
2015,11,17,05,36,28.20
2015,11,17,05,37,28.90
2015,11,17,05,38,26.70
2015,11,17,05,39,26.20
2015,11,17,05,40,25.50
2015,11,17,05,41,26.30
2015,11,17,05,42,28.70
2015,11,17,05,43,22.70
2015,11,17,05,44,29.00
2015,11,17,05,45,25.30
2015,11,17,05,46,35.30
2015,11,17,05,47,30.30
2015,11,17,05,48,31.60
2015,11,17,05,49,32.70
2015,11,17,05,50,34.90
2015,11,17,05,51,39.80
2015,11,17,05,52,40.60
2015,11,17,05,53,40.60
2015,11,17,05,54,36.20
2015,11,17,05,55,33.90
2015,11,17,05,56,35.40
2015,11,17,05,57,33.10
2015,11,17,05,58,28.80
2015,11,17,05,59,32.30
2015,11,17,06,00,31.00
2015,11,17,06,01,35.90
2015,11,17,06,02,34.20
2015,11,17,06,03,31.80
2015,11,17,06,04,32.60
2015,11,17,06,05,33.00
2015,11,17,06,06,33.00
2015,11,17,06,07,45.10
2015,11,17,06,08,52.30
2015,11,17,06,09,40.60
2015,11,17,06,10,30.10
2015,11,17,06,11,29.30
2015,11,17,06,12,32.50
2015,11,17,06,13,32.30
2015,11,17,06,14,30.00
2015,11,17,06,15,30.60
2015,11,17,06,16,32.00
2015,11,17,06,17,43.80
2015,11,17,06,18,46.60
2015,11,17,06,19,50.10
2015,11,17,06,20,50.40
2015,11,17,06,21,53.40
2015,11,17,06,22,53.70
2015,11,17,06,23,54.40
2015,11,17,06,24,55.60
2015,11,17,06,25,52.50
2015,11,17,06,26,48.00
2015,11,17,06,27,49.30
2015,11,17,06,28,44.80
2015,11,17,06,29,36.00
2015,11,17,06,30,31.20
2015,11,17,06,31,28.50
2015,11,17,06,32,25.60
2015,11,17,06,33,30.30
2015,11,17,06,34,33.80
2015,11,17,06,35,37.90
2015,11,17,06,36,41.40
2015,11,17,06,37,48.40
2015,11,17,06,38,48.50
2015,11,17,06,39,52.40
2015,11,17,06,40,47.80
2015,11,17,06,41,53.60
2015,11,17,06,42,53.00
2015,11,17,06,43,57.70
2015,11,17,06,44,58.70
2015,11,17,06,45,58.60
2015,11,17,06,46,60.50
2015,11,17,06,47,54.10
2015,11,17,06,48,53.20
2015,11,17,06,49,56.40
2015,11,17,06,50,63.30
2015,11,17,06,51,66.10
2015,11,17,06,52,65.40
2015,11,17,06,53,66.90
2015,11,17,06,54,61.70
2015,11,17,06,55,63.40
2015,11,17,06,56,57.10
2015,11,17,06,57,53.80
2015,11,17,06,58,60.40
2015,11,17,06,59,61.10
2015,11,17,07,00,60.10
2015,11,17,07,01,62.80
2015,11,17,07,02,58.40
2015,11,17,07,03,59.30
2015,11,17,07,04,60.80
2015,11,17,07,05,56.10
2015,11,17,07,06,60.20
2015,11,17,07,07,60.90
2015,11,17,07,08,62.50
2015,11,17,07,09,65.40
2015,11,17,07,10,66.20
2015,11,17,07,11,64.40
2015,11,17,07,12,63.10
2015,11,17,07,13,63.60
2015,11,17,07,14,65.90
2015,11,17,07,15,65.30
2015,11,17,07,16,63.20
2015,11,17,07,17,60.30
2015,11,17,07,18,57.20
2015,11,17,07,19,59.20
2015,11,17,07,20,61.50
2015,11,17,07,21,58.20
2015,11,17,07,22,61.50
2015,11,17,07,23,57.90
2015,11,17,07,24,57.90
2015,11,17,07,25,57.90
2015,11,17,07,26,57.90
2015,11,17,07,27,57.90
2015,11,17,07,28,57.90
2015,11,17,07,29,57.90
2015,11,17,07,30,54.20
2015,11,17,07,31,49.70
2015,11,17,07,32,47.10
2015,11,17,07,33,46.50
2015,11,17,07,34,45.70
2015,11,17,07,35,42.00
2015,11,17,07,36,43.10
2015,11,17,07,37,44.50
2015,11,17,07,38,39.90
2015,11,17,07,39,37.50
2015,11,17,07,40,34.70
2015,11,17,07,41,31.50
2015,11,17,07,42,30.90
2015,11,17,07,43,31.20
2015,11,17,07,44,30.90
2015,11,17,07,45,30.80
2015,11,17,07,46,27.70
2015,11,17,07,47,24.90
2015,11,17,07,48,27.70
2015,11,17,07,49,35.30
2015,11,17,07,50,34.40
2015,11,17,07,51,35.70
2015,11,17,07,52,35.70
2015,11,17,07,53,34.30
2015,11,17,07,54,34.40
2015,11,17,07,55,34.30
2015,11,17,07,56,34.80
2015,11,17,07,57,36.50
2015,11,17,07,58,33.40
2015,11,17,07,59,38.80
2015,11,17,08,00,34.90
2015,11,17,08,01,34.30
2015,11,17,08,02,37.80
2015,11,17,08,03,39.40
2015,11,17,08,04,39.30
2015,11,17,08,05,41.60
2015,11,17,08,06,37.90
2015,11,17,08,07,39.00
2015,11,17,08,08,40.20
2015,11,17,08,09,34.60
2015,11,17,08,10,30.20
2015,11,17,08,11,32.40
2015,11,17,08,12,36.40
2015,11,17,08,13,35.50
2015,11,17,08,14,34.10
2015,11,17,08,15,38.50
2015,11,17,08,16,37.70
2015,11,17,08,17,37.70
2015,11,17,08,18,42.80
2015,11,17,08,19,43.00
2015,11,17,08,20,41.10
2015,11,17,08,21,40.90
2015,11,17,08,22,42.40
2015,11,17,08,23,42.60
2015,11,17,08,24,44.30
2015,11,17,08,25,46.20
2015,11,17,08,26,44.00
2015,11,17,08,27,41.80
2015,11,17,08,28,46.40
2015,11,17,08,29,45.10
2015,11,17,08,30,43.60
2015,11,17,08,31,43.60
2015,11,17,08,32,41.40
2015,11,17,08,33,41.90
2015,11,17,08,34,42.60
2015,11,17,08,35,43.80
2015,11,17,08,36,43.50
2015,11,17,08,37,41.20
2015,11,17,08,38,43.70
2015,11,17,08,39,44.40
2015,11,17,08,40,44.00
2015,11,17,08,41,44.50
2015,11,17,08,42,42.10
2015,11,17,08,43,44.00
2015,11,17,08,44,44.30
2015,11,17,08,45,44.00
2015,11,17,08,46,42.70
2015,11,17,08,47,45.10
2015,11,17,08,48,41.60
2015,11,17,08,49,41.70
2015,11,17,08,50,43.20
2015,11,17,08,51,42.30
2015,11,17,08,52,42.10
2015,11,17,08,53,43.80
2015,11,17,08,54,41.70
2015,11,17,08,55,42.30
2015,11,17,08,56,43.70
2015,11,17,08,57,42.40
2015,11,17,08,58,44.50
2015,11,17,08,59,44.10
2015,11,17,09,00,42.30
2015,11,17,09,01,45.70
2015,11,17,09,02,44.00
2015,11,17,09,03,42.90
2015,11,17,09,04,42.60
2015,11,17,09,05,44.30
2015,11,17,09,06,42.50
2015,11,17,09,07,40.20
2015,11,17,09,08,40.20
2015,11,17,09,09,40.20
2015,11,17,09,10,40.20
2015,11,17,09,11,41.00
2015,11,17,09,12,43.10
2015,11,17,09,13,35.30
2015,11,17,09,14,29.80
2015,11,17,09,15,37.20
2015,11,17,09,16,34.90
2015,11,17,09,17,31.10
2015,11,17,09,18,30.60
2015,11,17,09,19,32.70
2015,11,17,09,20,36.90
2015,11,17,09,21,40.50
2015,11,17,09,22,42.80
2015,11,17,09,23,39.20
2015,11,17,09,24,39.30
2015,11,17,09,25,39.40
2015,11,17,09,26,40.50
2015,11,17,09,27,36.00
2015,11,17,09,28,25.90
2015,11,17,09,29,32.50
2015,11,17,09,30,35.90
2015,11,17,09,31,36.60
2015,11,17,09,32,35.40
2015,11,17,09,33,38.60
2015,11,17,09,34,35.30
2015,11,17,09,35,34.00
2015,11,17,09,36,31.80
2015,11,17,09,37,34.20
2015,11,17,09,38,36.50
2015,11,17,09,39,38.00
2015,11,17,09,40,38.70
2015,11,17,09,41,35.60
2015,11,17,09,42,32.80
2015,11,17,09,43,31.20
2015,11,17,09,44,34.10
2015,11,17,09,45,34.00
2015,11,17,09,46,34.30
2015,11,17,09,47,39.80
2015,11,17,09,48,50.00
2015,11,17,09,49,55.80
2015,11,17,09,50,51.60
2015,11,17,09,51,56.70
2015,11,17,09,52,53.30
2015,11,17,09,53,55.80
2015,11,17,09,54,56.30
2015,11,17,09,55,52.50
2015,11,17,09,56,48.90
2015,11,17,09,57,53.50
2015,11,17,09,58,51.70
2015,11,17,09,59,57.80
2015,11,17,10,00,64.50
2015,11,17,10,01,65.40
2015,11,17,10,02,66.40
2015,11,17,10,03,64.20
2015,11,17,10,04,65.60
2015,11,17,10,05,68.90
2015,11,17,10,06,72.70
2015,11,17,10,07,68.50
2015,11,17,10,08,69.10
2015,11,17,10,09,77.70
2015,11,17,10,10,78.90
2015,11,17,10,11,80.30
2015,11,17,10,12,81.70
2015,11,17,10,13,76.10
2015,11,17,10,14,79.10
2015,11,17,10,15,78.00
2015,11,17,10,16,70.40
2015,11,17,10,17,74.00
2015,11,17,10,18,80.40
2015,11,17,10,19,79.30
2015,11,17,10,20,82.50
2015,11,17,10,21,83.80
2015,11,17,10,22,78.90
2015,11,17,10,23,86.10
2015,11,17,10,24,80.00
2015,11,17,10,25,80.50
2015,11,17,10,26,80.60
2015,11,17,10,27,81.60
2015,11,17,10,28,81.40
2015,11,17,10,29,88.50
2015,11,17,10,30,82.00
2015,11,17,10,31,85.20
2015,11,17,10,32,86.50
2015,11,17,10,33,79.70
2015,11,17,10,34,84.10
2015,11,17,10,35,84.80
2015,11,17,10,36,83.10
2015,11,17,10,37,85.80
2015,11,17,10,38,88.70
2015,11,17,10,39,85.70
2015,11,17,10,40,85.40
2015,11,17,10,41,85.70
2015,11,17,10,42,83.30
2015,11,17,10,43,88.20
2015,11,17,10,44,85.30
2015,11,17,10,45,83.80
2015,11,17,10,46,83.50
2015,11,17,10,47,86.10
2015,11,17,10,48,83.80
2015,11,17,10,49,89.20
2015,11,17,10,50,88.00
2015,11,17,10,51,86.60
2015,11,17,10,52,81.10
2015,11,17,10,53,81.00
2015,11,17,10,54,83.30
2015,11,17,10,55,88.10
2015,11,17,10,56,84.20
2015,11,17,10,57,86.70
2015,11,17,10,58,93.30
2015,11,17,10,59,93.30
2015,11,17,11,00,93.30
2015,11,17,11,01,93.10
2015,11,17,11,02,86.80
2015,11,17,11,03,89.20
2015,11,17,11,04,86.40
2015,11,17,11,05,87.90
2015,11,17,11,06,87.20
2015,11,17,11,07,85.10
2015,11,17,11,08,84.60
2015,11,17,11,09,88.30
2015,11,17,11,10,82.20
2015,11,17,11,11,80.70
2015,11,17,11,12,80.70
2015,11,17,11,13,79.40
2015,11,17,11,14,86.40
2015,11,17,11,15,85.40
2015,11,17,11,16,80.40
2015,11,17,11,17,85.40
2015,11,17,11,18,86.50
2015,11,17,11,19,85.90
2015,11,17,11,20,82.20
2015,11,17,11,21,81.20
2015,11,17,11,22,81.90
2015,11,17,11,23,83.80
2015,11,17,11,24,81.10
2015,11,17,11,25,80.80
2015,11,17,11,26,78.20
2015,11,17,11,27,78.40
2015,11,17,11,28,78.90
2015,11,17,11,29,78.60
2015,11,17,11,30,87.60
2015,11,17,11,31,80.50
2015,11,17,11,32,79.60
2015,11,17,11,33,83.40
2015,11,17,11,34,84.90
2015,11,17,11,35,81.80
2015,11,17,11,36,80.50
2015,11,17,11,37,80.00
2015,11,17,11,38,81.10
2015,11,17,11,39,78.40
2015,11,17,11,40,76.70
2015,11,17,11,41,81.30
2015,11,17,11,42,82.10
2015,11,17,11,43,84.80
2015,11,17,11,44,82.20
2015,11,17,11,45,80.90
2015,11,17,11,46,79.20
2015,11,17,11,47,78.20
2015,11,17,11,48,78.30
2015,11,17,11,49,81.30
2015,11,17,11,50,80.30
2015,11,17,11,51,76.30
2015,11,17,11,52,83.80
2015,11,17,11,53,82.20
2015,11,17,11,54,82.80
2015,11,17,11,55,82.50
2015,11,17,11,56,81.80
2015,11,17,11,57,78.10
2015,11,17,11,58,90.60
2015,11,17,11,59,86.60
2015,11,17,12,00,90.40
2015,11,17,12,01,88.40
2015,11,17,12,02,86.70
2015,11,17,12,03,103.00
2015,11,17,12,04,102.00
2015,11,17,12,05,101.30
2015,11,17,12,06,109.80
2015,11,17,12,07,102.10
2015,11,17,12,08,98.90
2015,11,17,12,09,96.00
2015,11,17,12,10,76.90
2015,11,17,12,11,80.80
2015,11,17,12,12,80.90
2015,11,17,12,13,93.80
2015,11,17,12,14,101.30
2015,11,17,12,15,98.90
2015,11,17,12,16,102.30
2015,11,17,12,17,89.10
2015,11,17,12,18,91.90
2015,11,17,12,19,98.20
2015,11,17,12,20,87.40
2015,11,17,12,21,93.50
2015,11,17,12,22,90.40
2015,11,17,12,23,88.20
2015,11,17,12,24,89.70
2015,11,17,12,25,86.20
2015,11,17,12,26,80.50
2015,11,17,12,27,83.10
2015,11,17,12,28,94.70
2015,11,17,12,29,93.40
2015,11,17,12,30,90.10
2015,11,17,12,31,83.40
2015,11,17,12,32,80.10
2015,11,17,12,33,89.90
2015,11,17,12,34,91.30
2015,11,17,12,35,87.50
2015,11,17,12,36,83.50
2015,11,17,12,37,89.50
2015,11,17,12,38,86.40
2015,11,17,12,39,92.70
2015,11,17,12,40,95.60
2015,11,17,12,41,88.30
2015,11,17,12,42,92.20
2015,11,17,12,43,93.20
2015,11,17,12,44,88.80
2015,11,17,12,45,90.30
2015,11,17,12,46,82.80
2015,11,17,12,47,82.10
2015,11,17,12,48,87.90
2015,11,17,12,49,89.20
2015,11,17,12,50,81.80
2015,11,17,12,51,90.70
2015,11,17,12,52,87.50
2015,11,17,12,53,101.10
2015,11,17,12,54,92.80
2015,11,17,12,55,101.40
2015,11,17,12,56,91.70
2015,11,17,12,57,95.10
2015,11,17,12,58,91.90
2015,11,17,12,59,88.30
2015,11,17,13,00,92.00
2015,11,17,13,01,93.10
2015,11,17,13,02,94.00
2015,11,17,13,03,93.30
2015,11,17,13,04,85.90
2015,11,17,13,05,87.80
2015,11,17,13,06,90.40
2015,11,17,13,07,83.50
2015,11,17,13,08,86.70
2015,11,17,13,09,90.70
2015,11,17,13,10,90.50
2015,11,17,13,11,83.80
2015,11,17,13,12,81.10
2015,11,17,13,13,87.20
2015,11,17,13,14,84.60
2015,11,17,13,15,92.30
2015,11,17,13,16,83.10
2015,11,17,13,17,80.50
2015,11,17,13,18,80.10
2015,11,17,13,19,80.80
2015,11,17,13,20,75.50
2015,11,17,13,21,77.60
2015,11,17,13,22,81.70
2015,11,17,13,23,87.50
2015,11,17,13,24,77.10
2015,11,17,13,25,77.40
2015,11,17,13,26,77.80
2015,11,17,13,27,86.50
2015,11,17,13,28,82.50
2015,11,17,13,29,86.80
2015,11,17,13,30,83.00
2015,11,17,13,31,85.90
2015,11,17,13,32,82.80
2015,11,17,13,33,77.50
2015,11,17,13,34,73.20
2015,11,17,13,35,81.60
2015,11,17,13,36,87.20
2015,11,17,13,37,87.50
2015,11,17,13,38,88.70
2015,11,17,13,39,90.10
2015,11,17,13,40,90.10
2015,11,17,13,41,90.10
2015,11,17,13,42,88.80
2015,11,17,13,43,74.30
2015,11,17,13,44,86.00
2015,11,17,13,45,82.60
2015,11,17,13,46,79.20
2015,11,17,13,47,78.80
2015,11,17,13,48,73.90
2015,11,17,13,49,69.50
2015,11,17,13,50,69.90
2015,11,17,13,51,69.90
2015,11,17,13,52,69.00
2015,11,17,13,53,75.50
2015,11,17,13,54,68.10
2015,11,17,13,55,68.40
2015,11,17,13,56,68.80
2015,11,17,13,57,79.60
2015,11,17,13,58,74.60
2015,11,17,13,59,71.40
2015,11,17,14,00,67.80
2015,11,17,14,01,75.30
2015,11,17,14,02,71.80
2015,11,17,14,03,67.30
2015,11,17,14,04,79.80
2015,11,17,14,05,81.10
2015,11,17,14,06,81.40
2015,11,17,14,07,73.70
2015,11,17,14,08,73.10
2015,11,17,14,09,71.70
2015,11,17,14,10,79.00
2015,11,17,14,11,83.30
2015,11,17,14,12,77.60
2015,11,17,14,13,73.10
2015,11,17,14,14,78.40
2015,11,17,14,15,80.50
2015,11,17,14,16,76.50
2015,11,17,14,17,68.10
2015,11,17,14,18,64.90
2015,11,17,14,19,72.10
2015,11,17,14,20,68.10
2015,11,17,14,21,67.80
2015,11,17,14,22,74.30
2015,11,17,14,23,72.00
2015,11,17,14,24,68.40
2015,11,17,14,25,70.60
2015,11,17,14,26,72.30
2015,11,17,14,27,70.40
2015,11,17,14,28,79.50
2015,11,17,14,29,71.70
2015,11,17,14,30,75.00
2015,11,17,14,31,82.70
2015,11,17,14,32,82.10
2015,11,17,14,33,89.30
2015,11,17,14,34,102.70
2015,11,17,14,35,87.70
2015,11,17,14,36,95.30
2015,11,17,14,37,97.90
2015,11,17,14,38,102.70
2015,11,17,14,39,98.90
2015,11,17,14,40,85.80
2015,11,17,14,41,94.20
2015,11,17,14,42,87.50
2015,11,17,14,43,85.00
2015,11,17,14,44,95.10
2015,11,17,14,45,93.30
2015,11,17,14,46,87.10
2015,11,17,14,47,87.10
2015,11,17,14,48,93.80
2015,11,17,14,49,80.50
2015,11,17,14,50,82.70
2015,11,17,14,51,89.20
2015,11,17,14,52,88.10
2015,11,17,14,53,88.80
2015,11,17,14,54,88.40
2015,11,17,14,55,89.10
2015,11,17,14,56,87.40
2015,11,17,14,57,87.40
2015,11,17,14,58,80.20
2015,11,17,14,59,79.20
2015,11,17,15,00,78.40
2015,11,17,15,01,82.50
2015,11,17,15,02,76.20
2015,11,17,15,03,76.60
2015,11,17,15,04,73.10
2015,11,17,15,05,72.60
2015,11,17,15,06,71.70
2015,11,17,15,07,77.80
2015,11,17,15,08,75.60
2015,11,17,15,09,75.60
2015,11,17,15,10,79.40
2015,11,17,15,11,75.30
2015,11,17,15,12,85.80
2015,11,17,15,13,75.90
2015,11,17,15,14,77.50
2015,11,17,15,15,77.40
2015,11,17,15,16,79.50
2015,11,17,15,17,75.40
2015,11,17,15,18,77.90
2015,11,17,15,19,72.90
2015,11,17,15,20,66.90
2015,11,17,15,21,72.70
2015,11,17,15,22,73.80
2015,11,17,15,23,70.30
2015,11,17,15,24,71.60
2015,11,17,15,25,74.30
2015,11,17,15,26,70.00
2015,11,17,15,27,67.30
2015,11,17,15,28,61.70
2015,11,17,15,29,62.70
2015,11,17,15,30,75.40
2015,11,17,15,31,74.40
2015,11,17,15,32,70.40
2015,11,17,15,33,76.80
2015,11,17,15,34,73.90
2015,11,17,15,35,73.50
2015,11,17,15,36,69.10
2015,11,17,15,37,70.70
2015,11,17,15,38,70.60
2015,11,17,15,39,68.40
2015,11,17,15,40,65.80
2015,11,17,15,41,69.00
2015,11,17,15,42,62.00
2015,11,17,15,43,63.00
2015,11,17,15,44,69.50
2015,11,17,15,45,67.90
2015,11,17,15,46,69.20
2015,11,17,15,47,69.40
2015,11,17,15,48,72.70
2015,11,17,15,49,70.80
2015,11,17,15,50,67.70
2015,11,17,15,51,70.80
2015,11,17,15,52,73.20
2015,11,17,15,53,74.50
2015,11,17,15,54,68.00
2015,11,17,15,55,74.10
2015,11,17,15,56,71.70
2015,11,17,15,57,74.60
2015,11,17,15,58,67.60
2015,11,17,15,59,68.00
2015,11,17,16,00,74.30
2015,11,17,16,01,74.80
2015,11,17,16,02,74.20
2015,11,17,16,03,70.60
2015,11,17,16,04,70.70
2015,11,17,16,05,68.50
2015,11,17,16,06,71.60
2015,11,17,16,07,71.70
2015,11,17,16,08,68.30
2015,11,17,16,09,65.70
2015,11,17,16,10,76.30
2015,11,17,16,11,78.00
2015,11,17,16,12,79.50
2015,11,17,16,13,73.10
2015,11,17,16,14,71.40
2015,11,17,16,15,76.10
2015,11,17,16,16,66.30
2015,11,17,16,17,64.80
2015,11,17,16,18,71.90
2015,11,17,16,19,74.40
2015,11,17,16,20,75.20
2015,11,17,16,21,67.70
2015,11,17,16,22,66.80
2015,11,17,16,23,61.80
2015,11,17,16,24,70.50
2015,11,17,16,25,64.90
2015,11,17,16,26,63.20
2015,11,17,16,27,67.10
2015,11,17,16,28,62.70
2015,11,17,16,29,69.00
2015,11,17,16,30,68.70
2015,11,17,16,31,59.80
2015,11,17,16,32,61.80
2015,11,17,16,33,61.10
2015,11,17,16,34,67.10
2015,11,17,16,35,69.50
2015,11,17,16,36,61.00
2015,11,17,16,37,60.00
2015,11,17,16,38,70.30
2015,11,17,16,39,69.50
2015,11,17,16,40,67.60
2015,11,17,16,41,61.20
2015,11,17,16,42,69.40
2015,11,17,16,43,67.30
2015,11,17,16,44,66.50
2015,11,17,16,45,70.60
2015,11,17,16,46,70.20
2015,11,17,16,47,64.70
2015,11,17,16,48,64.60
2015,11,17,16,49,65.80
2015,11,17,16,50,73.60
2015,11,17,16,51,72.10
2015,11,17,16,52,73.90
2015,11,17,16,53,67.80
2015,11,17,16,54,73.80
2015,11,17,16,55,65.30
2015,11,17,16,56,64.60
2015,11,17,16,57,74.20
2015,11,17,16,58,69.80
2015,11,17,16,59,70.70
2015,11,17,17,00,67.40
2015,11,17,17,01,70.60
2015,11,17,17,02,65.60
2015,11,17,17,03,65.70
2015,11,17,17,04,64.10
2015,11,17,17,05,73.70
2015,11,17,17,06,69.40
2015,11,17,17,07,68.80
2015,11,17,17,08,67.90
2015,11,17,17,09,68.30
2015,11,17,17,10,68.60
2015,11,17,17,11,65.40
2015,11,17,17,12,63.00
2015,11,17,17,13,76.10
2015,11,17,17,14,79.10
2015,11,17,17,15,71.30
2015,11,17,17,16,67.60
2015,11,17,17,17,63.70
2015,11,17,17,18,67.10